Location: Newark
(50.1395°N, 5.5234°W)
Time: 22:13:27
(UTC+00:00)

ISS - Pass Details

Date: 09 March 2021
Orbit: 418 x 422 km, 51.6° (Epoch: 12 April)

Event Time Altitude Azimuth Distance (km) Brightness Sun altitude
Exits shadow 05:31:02 25° 260° (W) 888 -2.7 -13.2°
Maximum altitude 05:32:26 38° 210° (SSW) 653 -3.1 -13.0°
Drops below altitude 10° 05:35:35 10° 140° (SE) 1,494 -0.5 -12.5°
Sets 05:37:45 0° 133° (SE) 2,355 0.7 -12.2°
